STARLINK-34795

Last updated on Mon Oct 20 2025 00:02:06 GMT+0000 (Coordinated Universal Time)

1 65684U 25212J 25292.25002315 -.02056021 00000+0 -50971-1 0 9999 2 65684 53.1592 282.8407 0001353 73.7512 3.3630 15.43416496 5568
UTC large
Height (km)
Speed (km/s)
/
Latitude / Longitude
Inclination (degrees)
Orbital Period (minutes)
Azimuth
Elevation
Range (km)
Doppler Factor

Next 0 passes for location: London (51.5072 / 0.1276)

Sorry there are no passes over London.